Regional Weather Roundup
Issued by NWS

Home | Current Version | Previous Version | Text Only | Print | Product List | Glossary On
Versions: 1 2 3 4 5 6 7 8 9 10 11 12 13 14 15 16 17 18 19 20 21 22 23 24 25 26 27 28 29 30 31 32 33 34 35 36 37 38 39 40 41 42 43 44 45 46 47 48 49 50
000
ASUS45 KBOU 010607
RWRCO

WEATHER ROUNDUP FOR COLORADO
NATIONAL WEATHER SERVICE DENVER/BOULDER CO
1200 AM MDT TUE SEP 01 2015

NOTE: "FAIR" INDICATES FEW OR NO CLOUDS BELOW 12000 FEET WITH NO
SIGNIFICANT WEATHER AND/OR OBSTRUCTIONS TO VISIBILITY.

COZ001>005-013-030-031-010700-
...NORTHWEST COLORADO...

CITY           SKY/WX    TMP DP  RH WIND       PRES   REMARKS
CRAIG          PTCLDY    58  45  62 E3        30.22S
HAYDEN         NOT AVBL
MEEKER         PTCLDY    54  48  80 CALM      30.24S
MOUNT WERNER   NOT AVBL
STEAMBOAT SPGS PTCLDY    50  45  83 NW3       30.27S
WALDEN         PTCLDY    45  41  87 SE5       30.33F
$$

COZ006>008-011-010700-
...WEST CENTRAL VALLEYS...

CITY           SKY/WX    TMP DP  RH WIND       PRES   REMARKS
GRAND JUNCTION PTCLDY    71  50  47 E6        30.09F
MONTROSE       MOCLDY    63  51  65 S5        30.19S
EAGLE          CLOUDY    57  48  72 CALM      30.28F
RIFLE          PTCLDY    62  50  64 CALM      30.18S
DELTA          MOCLDY    68  53  58 E6        30.14F
NUCLA          MOCLDY    63  41  45 E9        30.23S
$$

COZ017>023-064>068-010700-
...SOUTHWEST COLORADO...

CITY           SKY/WX    TMP DP  RH WIND       PRES   REMARKS
DURANGO        MOCLDY    64  42  44 NW6       30.24S
CORTEZ         PTCLDY    60  48  64 NE6       30.20R
PAGOSA SPRINGS MOCLDY    52  42  68 CALM      30.32S
TELLURIDE      MOCLDY    55  47  74 CALM      30.43S
WOLF CREEK PAS PTCLDY    45  36  70 SW14      30.63F
$$

COZ009-010-012-014-032>034-037-058>063-010700-
...CENTRAL COLORADO...

CITY           SKY/WX    TMP DP  RH WIND       PRES   REMARKS
ASPEN          MOCLDY    52  46  80 S6        30.33F
BUENA VISTA    PTCLDY    54  44  67 N9        30.33S
COPPER MTN     CLEAR     46  37  71 S12       30.59F
BERTHOUD PASS  FAIR      37  28  70 W21G26    30.62S
COTTONWOOD PAS CLEAR     55  34  44 W6        30.45F
GUNNISON       PTCLDY    52  43  71 CALM      30.35S
KREMMLING      MOCLDY    50  43  76 N3        30.33S
LEADVILLE      PTCLDY    42  36  79 NE6       30.45F
MONARCH PASS   CLEAR     45  36  70 W13       30.70F
SALIDA         PTCLDY    58  46  63 NW7       30.37S
SUNLIGHT       MOCLDY    50  45  81 CALM      30.54F
WILKERSON PASS MOCLDY    48  37  66 W3        30.57F
$$

COZ069>075-010700-
...SAN LUIS VALLEY/SANGRE DE CRISTO MOUNTAINS...

CITY           SKY/WX    TMP DP  RH WIND       PRES   REMARKS
ALAMOSA        CLOUDY    54  51  90 NE3       30.30F
LA VETA PASS   CLOUDY    50  41  71 MISG      30.47F
SAGUACHE       MOCLDY    54  45  71 CALM      30.34S
$$

COZ035-036-038>040-010700-
...NORTHERN COLORADO FRONT RANGE...

CITY           SKY/WX    TMP DP  RH WIND       PRES   REMARKS
DENVER INTL AP MOCLDY    61  53  75 SW7       30.15F
DMNS CITY PARK   N/A     60  57  89 E8        30.15S
AURORA         MOCLDY    59  54  81 SW7       30.17F
FRONT RANGE AP NOT AVBL
ERIE MUNI ARPT PTCLDY    59  57  92 S5        30.13F
BOULDER MUN AP PTCLDY    64  52  63 SW6       30.14F
CENTENNIAL     MOCLDY    58  54  86 S7        30.18F
BROOMFIELD     PTCLDY    59  54  82 W6        30.17F
FORT COLLINS   PTCLDY    61  52  72 S7        30.12F
LONGMONT       PTCLDY    61  56  84 W3        30.14F
$$

COZ041-046-047-076>085-087-088-010700-
...PIKES PEAK/PALMER DIVIDE AND SOUTHERN FOOTHILLS...

CITY           SKY/WX    TMP DP  RH WIND       PRES   REMARKS
COLO. SPRINGS  MOCLDY    64  50  60 W7        30.20S
A. F. ACADEMY  CLOUDY    57  53  85 N8        30.22S
ELLICOTT       MOCLDY   N/A N/A N/A N8        30.18R
FALCON         MOCLDY    61  48  62 MISG      30.25R
FORT CARSON    MOCLDY    63  52  67 N8        30.16R
LIMON          PTCLDY    56  54  93 NW6       30.14S
MONUMENT HILL  MOCLDY    54  50  87 CALM      30.27R
TRINIDAD       CLOUDY    67  51  56 SE6       30.18R
$$

COZ042>045-048>051-090-091-010700-
...NORTHEAST COLORADO...

CITY           SKY/WX    TMP DP  RH WIND       PRES   REMARKS
GREELEY ARPT   PTCLDY    61  48  63 W7        30.11S
AKRON          CLOUDY    62  57  83 SW6       30.08S
BURLINGTON     CLOUDY    65  60  84 NE9       30.01F
WRAY           TSTM      65  62  89 NW13      30.05S
STERLING       CLOUDY    61  59  94 S7        30.04F
HOLYOKE        CLOUDY    66  61  82 NW5       30.03F
FORT MORGAN    CLOUDY    57  54  88 SW6       30.09S
$$

COZ086-089-092>099-010700-
...SOUTHEAST COLORADO...

CITY           SKY/WX    TMP DP  RH WIND       PRES   REMARKS
PUEBLO         MOCLDY    69  53  56 CALM      30.10S
LA JUNTA       CLOUDY    70  56  61 NW8       30.07R
LAMAR          CLOUDY    69  58  67 SE6       30.00R
SPRINGFIELD      N/A     69  55  60 SW3       30.10R
$$



USA.gov is the U.S. government's official web portal to all federal, state and local government web resources and services.